Location: *
(47.6569°N, 7.4256°E)
Time: 01:35:28
(UTC+00:00)

Cosmos 1703 Rocket - Pass Details

Date: 14 December 2019
Orbit: 604 x 635 km, 82.5° (Epoch: 22 January)

Event Time Altitude Azimuth Distance (km) Brightness Sun altitude
Rises 16:22:31 0° 164° (SSE) 2,916 7.2 -7.2°
Reaches altitude 10° 16:24:53 10° 155° (SSE) 2,015 6.2 -7.5°
Maximum altitude 16:28:55 34° 91° (E) 1,050 4.3 -8.1°
Drops below altitude 10° 16:32:58 10° 26° (NNE) 2,030 5.7 -8.8°
Enters shadow 16:34:58 - 19° (NNE) 2,789 6.5 -9.1°
